Content
SEND FEEDBACK

Daily
Averages
Monthly
Summary
United States of America

CRAWFORD, COLORADO


Home > North America > United States > Colorado
Elevation: 1762 meters     Latitude: 38 29N     Longitude: 107 53W

WEATHER
 
SELECT A DAY
Number of Records: 182,765;   Date Range: 1/1/95 - 9/29/14
 
SHARE

PRINT THIS DATA

[ ← Previous Day ]
WEATHER ALMANAC - 31 JANUARY, 2013
[ Next Day → ]
[ °F ]   °C
Weather ElementAverageHighLow
Temperature0 °C6.1 °C (2:53 pm)-4.4 °C (7:53 am)
Dewpoint-5.6 °C-3.9 °C (11:53 am)-7.2 °C (12:53 pm)
Humidity69.2 %91 % (7:53 am)38 % (3:53 pm)
Barometer1026.1 hPa1029.5 hPa (9:53 am)1023.4 hPa (1:53 am)
Wind Speed3.4 km/h11.1 km/h (4:53 pm)
Weather ElementAverage
Visibility16.1 km
Wind DirectionNE (42.9 °)

Weather ElementTotal
Precipitation---
Heating Degree Days17.5 (Base 18.3)
Averaged from 21 records on 31 January, 2013
WEATHER CONDITIONS BREAKOUT
WIND DIRECTION BREAKOUT
WEATHER BY HOUR - 31 JANUARY, 2013
[ °F ]   °C
Local TimeTemperatureDewpointHumidityBarometerVisibilityWind DirectionWind SpeedGust SpeedPrecipitationEventsConditions
1:53 AM-3.3 °C-5 °C88 %1023.4 hPa16.1 kmCalmOvercast
2:53 AM-3.3 °C-5.6 °C84 %1024 hPa16.1 kmCalmOvercast
3:53 AM-3.3 °C-6.1 °C81 %1024.4 hPa16.1 kmSouth (180°)5.6 km/hOvercast
4:53 AM-3.9 °C-5.6 °C88 %1025.4 hPa16.1 kmESE (120°)9.3 km/hOvercast
5:53 AM-3.9 °C-6.1 °C85 %1025.4 hPa16.1 kmCalmOvercast
6:53 AM-3.9 °C-6.1 °C85 %1026.1 hPa16.1 kmNorth (10°)7.4 km/hOvercast
7:53 AM-4.4 °C-5.6 °C91 %1027.8 hPa16.1 kmCalmOvercast
8:53 AM-2.8 °C-5 °C85 %1028.4 hPa16.1 kmCalmOvercast
9:53 AM-2.2 °C-5 °C81 %1029.5 hPa16.1 kmCalmOvercast
10:53 AM0 °C-4.4 °C73 %1028.8 hPa16.1 kmCalmScattered Clouds
11:53 AM2.8 °C-3.9 °C62 %1027.1 hPa16.1 kmCalmClear
12:53 PM5.6 °C-7.2 °C40 %1025.4 hPa16.1 kmCalmClear
1:53 PM5.6 °C-6.1 °C43 %1024.4 hPa16.1 kmVariable7.4 km/hClear
2:53 PM6.1 °C-6.7 °C40 %1024 hPa16.1 kmVariable5.6 km/hClear
3:53 PM6.1 °C-7.2 °C38 %1023.4 hPa16.1 kmCalmClear
4:53 PM5 °C-5.6 °C47 %1024.4 hPa16.1 kmNNW (330°)11.1 km/hClear
5:53 PM2.8 °C-4.4 °C59 %1025.4 hPa16.1 kmCalmOvercast
6:53 PM1.7 °C-5 °C61 %1026.4 hPa16.1 kmCalmPartly Cloudy
7:53 PM-1.1 °C-5 °C75 %1027.8 hPa16.1 kmSE (130°)11.1 km/hClear
8:53 PM-1.7 °C-6.1 °C72 %1027.8 hPa16.1 kmNorthClear
9:53 PM-2.2 °C-6.1 °C75 %1027.8 hPa16.1 kmSE (130°)11.1 km/hClear
Hourly data recorded from KMTJ, located 0 kilometers away from Crawford, Colorado







STORIES FROM OUR PARTNERS